Buenos Aires, Argentina

9:09 AM -03 on April 27, 2017 (GMT -0300)
Buenos Aires

Weather History for 87582 - November, 2012

Change the Weather History Date:

Tuesday, November 20, 2012

  Actual Average Record
Temperature  
Mean Temperature 74 °F -  
Max Temperature 79 °F 79 °F - ()
Min Temperature 68 °F 64 °F - ()
Cooling Degree Days 8    
Growing Degree Days 24 (Base 50)    
Moisture  
Dew Point 67 °F    
Average Humidity 75    
Maximum Humidity 88    
Minimum Humidity 60    
Precipitation  
Precipitation 0.00 in 0.13 in - ()
Sea Level Pressure  
Sea Level Pressure 29.89 in    
Wind  
Wind Speed 6 mph ()    
Max Wind Speed 18 mph    
Max Gust Speed -    
Visibility 5.9 miles    
Events      
T = Trace of Precipitation, MM = Missing Value Source: Averaged Metar Reports

Daily Weather History Graph

Daily Weather History Graph

Search for Another Location

Airport or City:

Trip Planner

Search our weather history database for the weather conditions in past years. The results will help you decide how hot, cold, wet, or windy it might be!

Date:

Astronomy

Nov. 20, 2012 Rise Set
Actual Time 5:37 AM -03 7:41 PM -03
Civil Twilight 5:09 AM -03 8:10 PM -03
Nautical Twilight 4:34 AM -03 8:44 PM -03
Astronomical Twilight 3:58 AM -03 9:21 PM -03
Moon 12:33 PM -03 (11/20) 12:53 AM -03 (11/20)
Length of Visible Light 15h 00m
Length of Day
14h 04m
Waxing Crescent, 50% of the Moon is Illuminated
Nov 20
Waxing Crescent
Nov 28
Full
Dec 6
Last Quarter
Dec 13
New
Dec 20
First Quarter

Hourly Weather History & Observations

Time (-03) Temp. Dew Point Humidity Pressure Visibility Wind Dir Wind Speed Gust Speed Precip Events Conditions
12:00 AM 75 °F 64 °F 60% 29.88 in 6 mi WNW 2.3 mph - -  
12:00 AM 75.2 °F 64.4 °F 69% 29.86 in 6.2 mi WNW 2.3 mph - N/A   Unknown
1:00 AM 75.2 °F 64.4 °F 69% 29.86 in 6.2 mi West 2.3 mph - N/A   Unknown
2:00 AM 73.4 °F 64.4 °F 73% 29.86 in - Calm Calm - N/A   Clear
3:00 AM 70 °F 65 °F 79% 29.86 in 6 mi Calm Calm - -  
3:00 AM 69.8 °F 64.4 °F 83% 29.86 in 6.2 mi Calm Calm - N/A   Unknown
4:00 AM 69.8 °F 64.4 °F 83% 29.86 in 6.2 mi Calm Calm - N/A   Unknown
5:00 AM 69.8 °F 64.4 °F 83% 29.86 in - ESE 2.3 mph - N/A   Clear
6:00 AM 68.0 °F 64.4 °F 88% 29.86 in 5.0 mi SSE 2.3 mph - N/A   Unknown
7:00 AM 75.2 °F 66.2 °F 73% 29.89 in 4.3 mi SSE 3.5 mph - N/A   Unknown
8:00 AM 77.0 °F 64.4 °F 65% 29.92 in 5.0 mi ESE 6.9 mph - N/A   Unknown
9:00 AM 78.8 °F 66.2 °F 65% 29.92 in 5.6 mi ESE 8.1 mph - N/A   Unknown
10:00 AM 78.8 °F 68.0 °F 69% 29.92 in 6.2 mi East 8.1 mph - N/A   Scattered Clouds
11:00 AM 77.0 °F 68.0 °F 74% 29.95 in 6.2 mi East 6.9 mph - N/A   Mostly Cloudy
12:00 PM 78 °F 70 °F 69% 29.96 in 6 mi East 9.2 mph - -   Scattered Clouds
12:00 PM 78.8 °F 69.8 °F 74% 29.95 in 6.2 mi East 9.2 mph - N/A   Mostly Cloudy
1:00 PM 77.0 °F 69.8 °F 78% 29.95 in 6.2 mi East 12.7 mph - N/A   Mostly Cloudy
2:00 PM 77.0 °F 69.8 °F 78% 29.92 in 6.2 mi ESE 15.0 mph - N/A   Mostly Cloudy
3:00 PM 77.0 °F 69.8 °F 78% 29.89 in - East 11.5 mph - N/A   Clear
4:00 PM 77.0 °F 68.0 °F 74% 29.89 in - East 10.4 mph - N/A   Clear
5:00 PM 77.0 °F 68.0 °F 74% 29.89 in - ESE 9.2 mph - N/A   Clear
6:00 PM 77 °F 68 °F 68% 29.88 in 6 mi ESE 13.8 mph - -   Clear
6:00 PM 77.0 °F 68.0 °F 74% 29.86 in - ESE 13.8 mph - N/A   Clear
7:00 PM 75.2 °F 66.2 °F 73% 29.86 in - ESE 15.0 mph - N/A   Clear
8:00 PM 73.4 °F 68.0 °F 83% 29.86 in - ESE 15.0 mph - N/A   Clear
9:00 PM 73 °F 68 °F 80% 29.88 in 6 mi ESE 18.4 mph - -   Scattered Clouds
9:00 PM 73.4 °F 68.0 °F 83% 29.86 in 6.2 mi ESE 18.4 mph - N/A   Partly Cloudy
10:00 PM 73.4 °F 68.0 °F 83% 29.89 in 6.2 mi ESE 18.4 mph - N/A   Scattered Clouds
11:00 PM 73.4 °F 68.0 °F 83% 29.89 in 6.2 mi ESE 18.4 mph - N/A   Scattered Clouds